Date String (YYYY-MM-DD hh:mm:ss) UTC,Instrument flags,Ambient pressure (hPa),Sample flow (lpm),Bypass flow (lpm),Sample temperature (°C),Ambient temperature (°C),ASC tube jacket temperature (°C),LED temperature (°C),Box temperature (°C),Sample RH (%),Span deviation,Mass concentration (μg/m³),Mass concentration (μg/m³),Mass concentration (μg/m³)
DateTimeUTC,F1_M11,P_M11,Q1_M11,Q2_M11,T1_M11,T2_M11,T3_M11,T4_M11,T5_M11,U1_M11,ZSPAN_M11,X0_M11,X2_M11,X1_M11
2022-02-05 11:00:00,,0826.1,5.00,0.00,22.3,22.4,00.0,31.3,24.0,05.8,0000.0,0001.35,0000.50,0000.28
2022-02-05 11:01:00,,0826.1,4.99,0.00,22.3,22.1,00.0,31.3,23.9,05.7,0000.0,0001.29,0000.48,0000.28
2022-02-05 11:02:00,,0826.0,5.01,0.00,22.2,21.8,00.0,31.2,23.8,05.6,0000.0,0001.25,0000.47,0000.28
2022-02-05 11:03:00,,0825.8,4.99,0.00,22.2,21.6,00.0,31.2,23.7,05.9,0000.0,0001.21,0000.45,0000.28
2022-02-05 11:04:00,,0825.9,5.00,0.00,22.1,21.4,00.0,31.2,23.7,06.0,0000.0,0001.18,0000.44,0000.28
2022-02-05 11:05:00,,0826.0,5.00,0.00,22.1,21.2,00.0,31.2,23.6,06.1,0000.0,0001.20,0000.44,0000.29
2022-02-05 11:06:00,,0826.0,5.00,0.00,22.0,21.1,00.0,31.1,23.5,06.0,0000.0,0001.20,0000.44,0000.29
2022-02-05 11:07:00,,0826.0,5.00,0.00,22.0,20.9,00.0,31.1,23.5,06.1,0000.0,0001.17,0000.44,0000.29
2022-02-05 11:08:00,,0826.1,5.01,0.00,21.9,20.8,00.0,31.1,23.4,06.2,0000.0,0001.12,0000.42,0000.29
2022-02-05 11:09:00,,0826.1,5.00,0.00,21.9,20.8,00.0,31.1,23.4,06.1,0000.0,0001.03,0000.40,0000.29
2022-02-05 11:10:00,,0826.2,5.00,0.00,21.9,21.3,00.0,31.1,23.5,05.9,0000.0,0000.63,0000.36,0000.29
2022-02-05 11:11:00,,0826.2,5.00,0.00,22.0,22.3,00.0,31.1,23.8,05.7,0000.0,0000.50,0000.34,0000.29
2022-02-05 11:12:00,,0826.2,5.01,0.00,22.2,22.9,00.0,31.1,24.1,05.7,0000.0,0000.50,0000.34,0000.28
2022-02-05 11:13:00,,0826.1,4.99,0.00,22.2,22.7,00.0,31.2,24.1,06.0,0000.0,0000.45,0000.33,0000.28
2022-02-05 11:14:00,,0826.1,5.00,0.00,22.2,22.4,00.0,31.2,23.9,05.3,0000.0,0000.44,0000.32,0000.28
2022-02-05 11:15:00,,0826.2,5.00,0.00,22.1,22.1,00.0,31.2,23.8,05.2,0000.0,0000.41,0000.31,0000.27
2022-02-05 11:16:00,,0826.2,5.00,0.00,22.1,21.8,00.0,31.1,23.7,05.3,0000.0,0000.33,0000.28,0000.26
2022-02-05 11:17:00,,0826.2,5.00,0.00,22.1,21.6,00.0,31.1,23.7,05.9,0000.0,0000.33,0000.28,0000.26
2022-02-05 11:18:00,,0826.2,5.00,0.00,22.0,21.5,00.0,31.1,23.6,06.0,0000.0,0000.37,0000.29,0000.26
2022-02-05 11:19:00,,0826.3,4.99,0.00,22.0,21.3,00.0,31.1,23.6,05.9,0000.0,0000.36,0000.28,0000.25
2022-02-05 11:20:00,,0826.5,5.01,0.00,21.9,21.1,00.0,31.1,23.5,06.3,0000.0,0000.44,0000.34,0000.30
2022-02-05 11:21:00,,0826.5,5.01,0.00,21.8,20.9,00.0,31.0,23.3,06.7,0000.0,0000.63,0000.46,0000.40
2022-02-05 11:22:00,,0826.5,4.98,0.00,21.8,20.8,00.0,31.0,23.2,07.0,0000.0,0000.85,0000.62,0000.53
2022-02-05 11:23:00,,0826.5,5.01,0.00,21.7,20.7,00.0,31.0,23.1,06.3,0000.0,0001.02,0000.73,0000.63
2022-02-05 11:24:00,,0826.5,4.99,0.00,21.7,21.3,00.0,31.0,23.3,06.3,0000.0,0001.11,0000.79,0000.68
2022-02-05 11:25:00,,0826.4,5.00,0.00,21.9,22.2,00.0,31.0,23.6,05.9,0000.0,0001.13,0000.81,0000.70
2022-02-05 11:26:00,,0826.3,4.99,0.00,22.0,23.1,00.0,31.0,24.0,05.6,0000.0,0001.19,0000.83,0000.71
2022-02-05 11:27:00,,0826.3,5.01,0.00,22.2,23.2,00.0,31.1,24.1,05.8,0000.0,0001.27,0000.87,0000.72
2022-02-05 11:28:00,,0826.3,5.00,0.00,22.2,22.8,00.0,31.1,24.0,05.4,0000.0,0001.26,0000.87,0000.71
2022-02-05 11:29:00,,0826.3,5.00,0.00,22.1,22.4,00.0,31.1,23.8,05.2,0000.0,0001.23,0000.86,0000.71
2022-02-05 11:30:00,,0826.4,4.99,0.00,22.1,22.1,00.0,31.1,23.7,05.2,0000.0,0001.27,0000.87,0000.72
2022-02-05 11:31:00,,0826.5,5.01,0.00,22.0,21.8,00.0,31.1,23.6,05.2,0000.0,0001.21,0000.82,0000.66
2022-02-05 11:32:00,,0826.5,4.99,0.00,22.0,21.5,00.0,31.0,23.5,05.5,0000.0,0001.01,0000.70,0000.56
2022-02-05 11:33:00,,0826.6,5.00,0.00,21.9,21.3,00.0,31.0,23.5,04.8,0000.0,0001.62,0000.55,0000.42
2022-02-05 11:34:00,,0826.6,5.00,0.00,21.9,21.2,00.0,31.0,23.4,04.9,0000.0,0001.54,0000.45,0000.33
2022-02-05 11:35:00,,0826.6,5.00,0.00,21.8,21.1,00.0,31.0,23.3,05.2,0000.0,0001.45,0000.39,0000.28
2022-02-05 11:36:00,,0826.6,4.99,0.00,21.7,20.9,00.0,30.9,23.2,05.3,0000.0,0001.44,0000.37,0000.25
2022-02-05 11:37:00,,0826.5,5.00,0.00,21.7,20.8,00.0,30.9,23.2,05.2,0000.0,0001.40,0000.36,0000.25
2022-02-05 11:38:00,,0826.6,5.00,0.00,21.7,21.0,00.0,30.9,23.2,05.3,0000.0,0001.33,0000.33,0000.25
2022-02-05 11:39:00,,0826.6,5.00,0.00,21.8,21.9,00.0,30.9,23.5,05.2,0000.0,0001.39,0000.35,0000.25
2022-02-05 11:40:00,,0826.5,5.00,0.00,22.0,22.8,00.0,30.9,23.8,05.3,0000.0,0001.41,0000.35,0000.25
2022-02-05 11:41:00,,0826.5,4.99,0.00,22.0,22.6,00.0,31.0,23.9,05.2,0000.0,0001.42,0000.35,0000.24
2022-02-05 11:42:00,,0826.5,5.02,0.00,22.0,22.0,00.0,31.0,23.7,05.2,0000.0,0001.40,0000.35,0000.25
2022-02-05 11:43:00,,0826.5,5.00,0.00,21.9,21.6,00.0,30.9,23.5,05.0,0000.0,0001.43,0000.36,0000.25
2022-02-05 11:44:00,,0826.5,4.99,0.00,21.8,21.2,00.0,30.9,23.3,05.4,0000.0,0000.87,0000.37,0000.26
2022-02-05 11:45:00,,0826.5,5.01,0.00,21.7,20.9,00.0,30.9,23.2,05.4,0000.0,0000.60,0000.37,0000.26
2022-02-05 11:46:00,,0826.5,5.00,0.00,21.6,20.7,00.0,30.8,23.0,05.2,0000.0,0000.63,0000.39,0000.27
2022-02-05 11:47:00,,0826.5,5.00,0.00,21.5,20.5,00.0,30.8,22.9,05.6,0000.0,0000.62,0000.39,0000.27
2022-02-05 11:48:00,,0826.5,5.01,0.00,21.4,20.3,00.0,30.7,22.8,05.5,0000.0,0000.65,0000.40,0000.28
2022-02-05 11:49:00,,0826.4,5.00,0.00,21.3,20.2,00.0,30.7,22.7,05.8,0000.0,0000.73,0000.41,0000.28
2022-02-05 11:50:00,,0826.5,4.99,0.00,21.3,20.8,00.0,30.7,22.8,06.0,0000.0,0000.66,0000.38,0000.28
2022-02-05 11:51:00,,0826.5,5.01,0.00,21.5,21.9,00.0,30.7,23.2,05.4,0000.0,0000.64,0000.38,0000.28
2022-02-05 11:52:00,,0826.5,4.99,0.00,21.6,22.6,00.0,30.7,23.4,05.2,0000.0,0000.63,0000.37,0000.29
2022-02-05 11:53:00,,0826.5,5.01,0.00,21.7,22.2,00.0,30.7,23.4,05.4,0000.0,0000.62,0000.36,0000.29
2022-02-05 11:54:00,,0826.5,4.99,0.00,21.6,21.7,00.0,30.7,23.2,05.0,0000.0,0000.64,0000.37,0000.29
2022-02-05 11:55:00,,0826.4,5.01,0.00,21.5,21.3,00.0,30.7,23.0,05.4,0000.0,0000.65,0000.37,0000.30
2022-02-05 11:56:00,,0826.3,5.00,0.00,21.4,21.0,00.0,30.6,22.9,05.4,0000.0,0000.59,0000.35,0000.30
2022-02-05 11:57:00,,0826.4,5.00,0.00,21.4,20.6,00.0,30.6,22.8,05.2,0000.0,0000.56,0000.34,0000.29
2022-02-05 11:58:00,,0826.5,5.02,0.00,21.3,20.4,00.0,30.6,22.7,05.5,0000.0,0000.56,0000.34,0000.29
2022-02-05 11:59:00,,0826.5,4.99,0.00,21.2,20.3,00.0,30.5,22.6,05.7,0000.0,0000.62,0000.37,0000.29
